TimeCST,TemperatureF,Dew PointF,Humidity,Sea Level PressureIn,VisibilityMPH,Wind Direction,Wind SpeedMPH,Gust SpeedMPH,PrecipitationIn,Events,Conditions,WindDirDegrees,DateUTC
12:53 AM,50.0,36.0,59,30.26,10.0,North,15.0,-,N/A,,Clear,360,2013-11-08 06:53:00
1:53 AM,48.9,35.1,59,30.26,10.0,North,13.8,-,N/A,,Clear,350,2013-11-08 07:53:00
2:53 AM,46.9,36.0,66,30.26,10.0,North,10.4,-,N/A,,Clear,350,2013-11-08 08:53:00
3:21 AM,46.9,35.1,63,30.26,10.0,North,12.7,-,N/A,,Clear,350,2013-11-08 09:21:00
3:53 AM,46.9,35.1,63,30.27,10.0,North,12.7,-,N/A,,Clear,360,2013-11-08 09:53:00
4:53 AM,46.0,35.1,66,30.28,10.0,North,11.5,-,N/A,,Clear,350,2013-11-08 10:53:00
5:53 AM,46.0,34.0,63,30.30,10.0,North,13.8,20.7,N/A,,Clear,10,2013-11-08 11:53:00
6:53 AM,46.9,35.1,63,30.31,10.0,North,12.7,23.0,N/A,,Clear,360,2013-11-08 12:53:00
7:53 AM,50.0,33.1,52,30.32,10.0,North,16.1,25.3,N/A,,Clear,10,2013-11-08 13:53:00
8:53 AM,53.1,33.1,47,30.32,10.0,North,17.3,-,N/A,,Clear,10,2013-11-08 14:53:00
9:53 AM,55.9,33.1,42,30.32,10.0,North,16.1,-,N/A,,Clear,10,2013-11-08 15:53:00
10:53 AM,60.1,32.0,35,30.29,10.0,North,12.7,-,N/A,,Clear,10,2013-11-08 16:53:00
11:53 AM,64.0,33.1,31,30.27,10.0,NNE,10.4,-,N/A,,Clear,20,2013-11-08 17:53:00
12:53 PM,64.9,33.1,31,30.23,10.0,NNE,11.5,-,N/A,,Clear,20,2013-11-08 18:53:00
1:53 PM,66.0,33.1,29,30.21,10.0,North,11.5,-,N/A,,Clear,360,2013-11-08 19:53:00
2:53 PM,66.0,33.1,29,30.20,10.0,North,10.4,-,N/A,,Clear,360,2013-11-08 20:53:00
3:53 PM,64.9,35.1,33,30.20,10.0,North,9.2,-,N/A,,Clear,360,2013-11-08 21:53:00
4:53 PM,60.1,36.0,41,30.20,10.0,North,9.2,-,N/A,,Clear,350,2013-11-08 22:53:00
5:53 PM,57.9,36.0,44,30.22,10.0,North,8.1,-,N/A,,Clear,350,2013-11-08 23:53:00
6:53 PM,57.0,36.0,45,30.23,10.0,North,6.9,-,N/A,,Clear,360,2013-11-09 00:53:00
7:53 PM,57.0,39.0,51,30.24,10.0,NNE,8.1,-,N/A,,Clear,20,2013-11-09 01:53:00
8:53 PM,53.1,41.0,64,30.25,10.0,North,5.8,-,N/A,,Clear,360,2013-11-09 02:53:00
9:53 PM,54.0,42.1,64,30.25,10.0,North,5.8,-,N/A,,Clear,10,2013-11-09 03:53:00
10:53 PM,46.9,41.0,80,30.24,10.0,NNE,4.6,-,N/A,,Clear,30,2013-11-09 04:53:00
11:53 PM,46.9,41.0,80,30.22,10.0,NNW,4.6,-,N/A,,Clear,330,2013-11-09 05:53:00